Weather in Port Mathurin

Mauritius     19°40′50″S   63°25′19″E
temp.,
°C
wind,
m/s
gust,
m/s
humid.,
%
clouds,
%
prec.,
mm/h
press.,
hPa
HPBL,
m
18 april, sun
sun1801:00+27nne45808 0.4 1016584
04:00+27ne44797 0.6 1015585
07:00+27e33770 0.0 1017521
10:00+27e44780 0.0 1018574
13:00+27e558116 0.0 1016640
16:00+27e45811 1.3 1016562
19:00+26e55827 2.4 1017533
22:00+26e668012 5.8 1018647
19 april, mon
mon1901:00+27e678025 1.6 1017777
04:00+26e677710 1.6 1016768
07:00+26ese78778 0.0 1017902
10:00+26ese7876100 0.1 1018961
13:00+27ese89737 0.0 10151046
16:00+26ese89765 0.0 1015988
19:00+27ese8976100 0.0 1016984
22:00+26e997873 0.4 1017944
20 april, tue
tue2001:00+26e8976100 0.1 1015880
04:00+26e7878100 0.4 1015902
07:00+26e7871100 0.0 10161048
10:00+27ene6773100 0.1 1016955
13:00+27e6678100 0.0 1014787
16:00+26e6680100 0.2 1014711
19:00+27e7776100 0.4 1015887
22:00+26e8874100 0.4 1016941
21 april, wed
wed2101:00+26e777383 0.0 1015960
04:00+26e66708 0.0 1014885
07:00+26e567285 0.0 1016979
10:00+26e677545 0.0 1016944
13:00+26ese557798 0.1 1015800
16:00+26se667818 0.2 1015794
19:00+26ese77756 0.3 1016823
22:00+26ese787513 0.3 1017937
22 april, thu
thu2201:00+26ese7880100 0.0 1015834
04:00+26ese887899 0.1 1014817
07:00+26ese8980100 0.2 1016817
10:00+26e7879100 0.8 1017853
13:00+26e7779100 0.6 1015824
16:00+26e6775100 0.3 1015884
19:00+27ese7772100 0.0 1016828
22:00+26e677698 0.0 1016798